Location: Newark
(15.4608°S, 41.1635°W)
Time: 14:01:47
(UTC+00:00)

Vanguard 3 - Pass Details

Date: 01 March 2021
Orbit: 508 x 3262 km, 33.3° (Epoch: 16 April)

Event Time Altitude Azimuth Distance (km) Brightness Sun altitude
Exits shadow 05:59:53 20° 146° (SSE) 1,800 9.3 -39.2°
Drops below altitude 10° 06:02:11 10° 135° (SE) 2,647 10.4 -38.7°
Sets 06:05:46 0° 127° (SE) 4,019 11.6 -37.9°
